Regional Weather Roundup
Issued by NWS State College, PA

Home | Current Version | Previous Version | Graphics & Text | Print | Product List | Glossary Off
Versions: 1 2 3 4 5 6 7 8 9 10 11 12 13 14 15 16 17 18 19 20 21 22 23 24 25 26 27 28 29 30 31 32 33 34 35 36 37 38 39 40 41 42 43 44 45 46 47 48 49 50

000
ASUS41 KCTP 311003
RWRCTP

REGIONAL WEATHER ROUNDUP
NATIONAL WEATHER SERVICE STATE COLLEGE PA
600 AM EDT FRI OCT 31 2014

Note: "fair" indicates few or no clouds below 12,000 feet with no
significant weather and/or obstructions to visibility.

* = STATION THAT DOES NOT REPORT PRECIPITATION /E.G. RAIN...SNOW...ETC/
    THUNDER OR FOG.

PAZ002>004-007>009-013>016-020>023-029>032-311100-
WESTERN PENNSYLVANIA

CITY           SKY/WX    TMP DP  RH WIND       PRES   REMARKS
ERIE           CLOUDY    42  36  79 S8        29.96S
MEADVILLE      CLOUDY    41  37  86 CALM      29.95F
FRANKLIN*      CLOUDY    39  36  87 SE3       29.97F
NEW CASTLE       N/A     41  40  96 CALM      29.98F
BEAVER COUNTY  NOT AVBL
BUTLER*        CLOUDY    43  37  81 CALM      29.98F
PITTSBURGH INT CLOUDY    44  38  79 CALM      29.96F
PITTSBURGH     CLOUDY    44  34  67 S5        29.96F
INDIANA*       CLOUDY    43  41  93 CALM      30.00F
LATROBE        CLOUDY    45  39  81 CALM      29.99F
WASHINGTON CO* CLOUDY    41  37  87 CALM      29.98F
$$

PAZ004>006-010>012-017>019-024>028-033>037-041-042-045-046-049>053-311100-
CENTRAL PENNSYLVANIA

CITY           SKY/WX    TMP DP  RH WIND       PRES   REMARKS
BRADFORD       CLOUDY    37  34  89 CALM      29.95F
DUBOIS         CLOUDY    40  37  89 CALM      29.95F
CLEARFIELD     CLOUDY    39  35  86 N5        29.98S
JOHNSTOWN      CLOUDY    41  34  76 SW5       29.95S
ALTOONA        CLOUDY    42  40  92 CALM      29.97F
STATE COLLEGE  CLOUDY    39  37  93 CALM      29.98F
WILLIAMSPORT   CLOUDY    36  31  82 CALM      30.02S
SELINSGROVE    CLOUDY    40  37  89 CALM      30.02S
FT INDIANTOWN  CLOUDY    42  39  88 NE2       30.02S
CAPITAL CITY   CLOUDY    47  38  71 CALM      30.01S
HARRISBURG     CLOUDY    47  37  68 CALM      30.01S
YORK           CLOUDY    45  41  86 CALM      30.00F
$$

PAZ038>040-043-044-047-048-054-055-060>062-067>071-311100-
EASTERN PENNSYLVANIA

CITY           SKY/WX    TMP DP  RH WIND       PRES   REMARKS
SCRANTON       CLEAR     33  28  81 E5        30.01S
MOUNT POCONO   CLEAR     26  23  88 CALM      29.97F
ALLENTOWN      CLEAR     29  27  92 SW3       30.02S
QUAKERTOWN*    SUNNY     28  28 100 CALM      30.03R
READING        CLEAR     36  32  85 CALM      30.02R
LANCASTER      CLOUDY    44  39  82 CALM      30.01S
COATESVILLE    SUNNY     39  32  75 CALM      30.02R
POTTSTOWN      CLEAR     31  29  92 CALM      30.04R
BLUE BELL      CLEAR     32  32 100 CALM      30.02R
DOYLESTOWN     CLEAR     34  32  92 CALM      30.02R
WILLOW GROVE   NOT AVBL
NORTH PHILA    CLEAR     39  30  70 NW5       30.04R
PHILADELPHIA   PTCLDY    41  33  73 NW8       30.03R
$$



USA.gov is the U.S. government's official web portal to all federal, state and local government web resources and services.